Lid_Strength_Index
12 15 16 15 14 14 15 16 16 15 13 14 14 14 12 13 12 11 11 11 11 11 10 9 9 9 10 10 10 10 10 10 10 10 11 11 12 12 12 11 11 11 11 11
14 16 13 13 13 13 14 15 16 14 12 13 14 14 13 13 13 11 11 11 11 12 11 10 10 10 11 11 11 11 11 11 11 11 11 12 12 12 12 12 12 11 11 11
14 13 11 12 14 14 15 15 15 15 14 15 16 16 15 12 13 12 10 10 10 11 11 11 11 12 12 12 12 12 12 12 12 12 12 12 12 12 13 13 12 12 11 11
13 11 12 13 14 13 16 13 13 14 16 18 16 18 16 15 14 13 12 11 11 11 11 11 12 13 13 13 12 12 12 12 12 12 13 13 14 14 14 14 13 12 12 12
14 14 13 13 13 12 14 12 13 14 16 17 17 18 18 15 15 14 14 11 11 11 11 11 12 12 12 12 13 13 12 12 13 13 13 13 14 14 14 14 13 13 12 12
14 13 14 13 13 12 12 15 15 16 17 20 17 17 16 17 15 14 12 11 11 11 11 11 12 12 12 13 13 13 13 13 13 13 13 13 14 14 14 14 14 14 13 13
16 15 15 13 16 14 15 17 20 21 21 21 16 18 15 14 12 11 11 12 11 11 11 12 12 12 12 13 13 13 13 13 13 13 13 14 14 14 14 15 15 14 14 14
20 20 16 14 14 15 15 15 19 22 22 21 17 20 17 11 11 11 11 11 11 11 11 11 11 11 11 11 12 11 12 12 12 13 13 13 13 14 13 14 14 14 15 15
18 19 14 14 13 13 16 17 14 17 17 19 19 17 13 11 11 11 12 12 12 11 11 10 10 11 11 11 11 11 12 12 12 13 13 13 13 13 13 13 14 14 14 14
15 18 14 12 12 13 14 13 17 17 19 20 20 19 18 13 12 11 12 12 12 11 10 9 10 10 10 10 10 10 11 11 12 12 12 12 13 13 13 13 14 15 15 15
13 15 16 13 15 16 14 15 15 15 16 20 20 19 15 12 10 10 11 10 11 10 9 8 9 9 9 9 10 10 10 11 11 10 11 12 12 13 13 14 14 15 15 14
11 13 17 15 12 12 12 14 14 17 18 17 18 18 11 11 9 8 9 9 9 9 8 8 9 9 10 10 10 10 11 11 10 10 11 11 12 13 13 14 14 15 15 14
11 14 17 17 15 12 14 13 14 14 15 17 19 17 11 11 10 8 9 8 7 7 8 10 10 10 10 9 9 9 10 10 10 11 12 12 13 13 14 14 13 14 14 15
9 12 15 18 16 14 16 14 13 14 18 18 17 17 13 11 11 10 10 10 9 6 8 10 10 10 9 9 9 9 9 10 10 11 12 12 13 13 14 13 14 14 14 14
12 16 14 14 13 13 14 14 14 15 14 17 15 15 13 11 10 9 9 9 9 7 7 9 9 9 9 8 8 9 10 10 11 11 12 13 13 14 14 14 14 14 14 15
10 15 13 15 13 13 14 14 13 13 13 14 13 14 10 9 9 10 9 9 7 7 6 7 8 8 9 9 10 11 11 11 11 12 12 13 13 14 15 15 15 15 16 17
11 14 15 17 13 13 16 15 13 12 12 12 15 12 10 11 11 10 9 7 7 7 7 8 8 8 8 10 11 11 11 12 12 12 13 15 16 16 18 16 16 19 20 18
12 12 13 15 14 20 14 12 11 12 12 10 10 10 10 10 9 10 9 8 8 8 8 9 9 9 10 10 10 11 12 12 13 14 15 14 16 18 17 19 21 21 23 24
9 11 14 16 16 14 14 12 12 12 13 10 10 9 9 8 9 10 8 9 10 10 12 11 10 11 11 11 11 12 12 13 14 16 16 16 16 17 18 19 20 21 22 23
10 10 13 15 18 20 14 10 8 9 15 10 9 9 9 9 12 10 9 10 11 12 12 11 11 10 11 11 11 12 14 14 16 15 16 16 15 16 17 18 19 23 24 25
13 14 15 15 17 14 10 9 8 15 14 8 8 8 9 10 9 10 11 11 12 11 11 10 10 11 11 11 12 13 13 14 15 16 15 14 14 15 16 18 19 21 23 24
14 15 17 17 21 19 9 9 12 10 10 8 8 8 9 9 9 10 10 11 11 11 10 11 11 12 12 11 13 14 14 15 14 14 14 15 15 13 14 16 17 21 23 24
16 13 16 14 15 10 9 10 8 8 8 8 8 8 8 10 9 10 11 11 11 11 12 11 12 12 12 12 12 14 14 14 14 13 14 14 13 13 15 16 18 19 21 22
12 11 14 12 11 10 9 8 7 7 7 6 6 8 9 11 10 10 11 11 12 12 12 12 12 12 12 12 12 13 13 13 13 13 14 13 15 15 15 16 17 19 21 22
12 11 12 12 10 9 9 7 7 7 6 6 7 8 10 11 9 10 11 10 10 11 13 11 12 12 12 12 13 12 12 12 13 13 13 14 14 16 17 17 18 19 24 20
12 12 13 14 10 10 11 8 6 7 7 6 7 9 10 10 10 10 10 9 10 11 11 11 11 12 12 13 13 12 12 12 13 14 14 15 16 17 18 18 19 16 16 15